EHI
0 0 0 0 0 0 0 0 0 0 0 0 0 0 0 0 0 1 2 3 3 6 12 17 19 18 18 17 14 13 12 13 12 11 7 4 3 2 2 3 3 3 2 1 1 2 2 1 0
0 0 0 0 0 0 0 0 0 0 0 0 0 0 0 0 0 1 3 4 4 7 13 18 20 20 19 17 15 13 13 13 13 11 8 4 3 3 3 3 3 2 1 0 1 2 1 0 0
0 0 0 0 0 0 0 0 0 0 0 0 0 0 0 0 0 1 3 4 5 8 14 19 21 21 20 19 17 16 16 15 15 12 9 6 4 3 4 5 3 2 1 0 1 2 1 0 0
0 0 0 0 0 0 0 0 0 0 0 0 0 0 1 1 0 1 3 4 5 7 12 18 22 21 21 21 22 21 20 18 14 12 11 9 5 4 5 5 4 2 1 1 1 2 1 1 1
0 0 0 0 0 0 0 0 0 0 0 0 0 1 2 2 2 2 2 3 4 4 9 16 21 21 21 23 24 24 23 20 14 12 13 12 8 5 4 3 3 2 1 0 1 1 2 2 2
0 0 0 0 0 0 0 0 0 0 0 0 1 2 3 4 4 4 3 2 3 3 7 14 19 21 20 21 23 24 25 23 16 12 12 12 9 6 4 2 1 1 1 0 0 1 2 3 2
0 0 0 0 0 0 0 0 0 0 0 0 1 2 5 8 10 9 6 4 4 4 7 11 15 17 17 18 21 23 24 23 18 12 11 11 9 6 4 2 0 0 1 1 0 1 1 1 1
0 0 0 0 0 0 0 0 0 0 1 1 1 2 8 16 20 18 14 10 7 6 7 9 11 12 10 12 16 20 21 20 16 11 9 9 8 6 4 2 1 0 0 0 0 0 0 0 0
0 0 0 0 0 0 0 0 0 0 1 2 3 5 14 26 28 24 20 17 14 11 8 8 9 8 7 7 11 14 15 14 12 9 7 6 4 3 2 2 3 2 0 0 0 0 0 0 0
0 0 0 0 0 0 0 0 0 0 1 2 5 11 22 29 28 22 18 19 19 16 13 11 10 10 9 9 10 11 11 12 10 9 7 4 2 1 0 1 3 2 0 0 0 0 0 0 0
0 0 0 0 0 0 0 1 1 1 1 1 6 16 24 26 22 17 14 16 19 19 17 15 15 15 13 13 13 13 11 11 10 9 8 6 5 4 3 2 2 2 1 1 0 0 0 0 0
0 0 0 0 0 0 0 2 3 3 3 3 8 17 22 21 18 14 13 15 18 20 17 17 19 20 18 17 16 13 11 11 10 10 11 11 11 10 8 5 3 3 2 2 2 2 1 0 0
0 0 0 0 0 0 0 1 4 5 6 7 12 18 20 17 14 13 14 15 18 18 16 18 21 23 23 21 18 13 11 10 11 12 12 12 12 12 11 8 5 3 3 2 2 3 2 1 1
0 0 0 0 0 0 0 1 3 5 8 10 15 18 17 13 12 13 14 16 17 17 16 18 22 24 25 24 20 16 14 14 13 13 13 11 10 11 11 9 5 3 3 2 2 2 3 2 2
0 0 0 0 0 0 1 2 3 6 8 11 15 16 16 13 12 13 16 16 17 17 18 19 21 24 25 23 20 17 16 18 17 16 15 13 10 10 11 8 6 4 4 4 3 2 2 2 1
0 0 0 0 0 0 1 2 4 6 9 12 14 14 15 15 13 15 17 18 18 18 21 21 20 23 24 21 19 17 17 19 20 18 17 14 11 10 10 9 7 5 5 5 4 2 1 1 0
0 0 0 0 0 0 1 3 4 5 8 11 12 12 14 15 15 17 20 21 21 21 22 22 20 22 23 21 19 18 18 19 18 16 14 13 11 10 10 10 8 6 5 5 5 3 1 0 0
0 0 0 0 0 0 2 3 4 5 8 10 9 9 13 16 18 20 22 23 22 22 23 21 20 22 23 21 19 18 18 17 15 12 10 10 9 8 9 9 8 6 6 6 5 4 2 1 1
0 0 0 0 0 0 1 2 3 5 7 8 7 9 14 19 21 23 23 22 20 21 22 21 21 22 22 20 17 17 16 15 13 11 9 8 7 6 7 7 7 6 6 6 5 4 3 2 3
0 0 0 0 0 0 1 2 3 4 5 6 8 10 14 19 23 26 26 23 20 21 22 22 24 25 23 20 17 17 16 15 13 12 11 8 7 7 6 5 5 5 6 5 4 4 4 3 3
0 0 0 0 0 0 0 1 2 3 3 3 6 10 12 16 21 25 27 24 23 22 21 22 25 26 26 23 21 22 21 18 16 14 13 12 9 7 7 5 4 4 5 4 4 5 6 6 5
0 0 0 0 0 0 0 1 1 2 2 3 6 7 8 12 17 21 23 23 22 20 19 20 23 26 27 27 27 27 25 20 18 17 17 17 14 10 7 6 5 5 5 5 5 6 7 7 7
0 0 0 0 0 0 0 0 0 0 1 3 5 7 8 10 13 16 17 18 19 18 18 19 22 25 28 29 29 29 27 22 20 21 22 23 20 16 10 9 10 9 8 7 7 7 7 7 6
0 0 0 0 0 0 0 0 0 0 1 2 5 8 9 10 11 13 14 16 16 16 19 21 24 26 28 29 29 30 29 25 24 25 26 27 25 21 17 14 14 14 11 9 9 9 7 6 5
0 0 0 0 0 0 0 0 0 1 2 4 7 9 11 11 11 12 14 16 17 18 21 23 25 27 28 28 28 29 28 27 26 26 26 26 24 21 20 18 17 16 14 12 11 10 7 5 5
0 0 0 0 0 0 0 0 0 1 3 6 8 10 12 12 12 14 16 18 21 23 24 23 23 23 25 27 27 27 27 25 25 25 23 21 19 17 18 18 17 15 15 15 14 11 7 5 5
0 0 0 0 0 0 0 0 0 2 4 5 6 9 11 11 11 14 17 19 22 24 23 21 19 19 22 24 25 25 26 24 23 22 19 16 13 12 13 15 13 12 11 12 13 12 8 6 6
0 0 0 0 0 0 0 0 1 3 3 2 3 7 10 10 9 11 14 16 18 19 18 17 17 18 21 23 23 22 22 21 19 17 15 13 11 11 11 10 8 6 6 6 8 9 8 6 5
0 0 0 0 0 0 0 0 1 3 2 2 3 6 9 9 7 8 10 12 12 12 12 11 13 18 22 24 23 21 18 17 17 15 12 11 12 12 11 8 5 4 3 4 5 6 6 6 6
0 0 0 0 0 0 0 0 1 1 2 3 4 6 7 8 7 7 9 8 8 7 7 7 10 16 22 25 25 20 16 15 16 14 11 10 11 12 11 8 6 4 3 4 4 4 4 5 6
Wind_Speed
9 8 7 6 7 2 5 7 5 5 4 4 4 3 5 7 7 8 7 8 8 9 11 12 8 7 7 6 6 7 7 7 8 7 7 7 7 7 7 8 8 9 9 10 10 11 11 11 11
6 6 7 7 4 3 6 6 5 6 5 5 5 3 4 6 7 7 7 9 9 10 10 10 9 7 7 7 7 7 7 8 8 7 7 7 7 7 8 9 9 10 10 9 10 11 11 11 10
6 7 7 4 1 2 6 5 6 5 5 4 4 4 4 6 6 6 8 11 10 9 9 11 9 8 7 7 7 7 7 7 7 7 7 7 7 7 8 9 9 9 9 9 10 10 10 10 10
6 7 6 3 2 4 4 4 3 5 5 3 4 6 6 6 4 7 11 11 10 10 9 12 9 8 7 7 7 7 7 7 7 7 7 7 7 7 8 8 9 9 9 9 9 9 9 10 10
7 6 5 3 3 4 3 3 2 4 4 4 3 6 8 6 7 10 11 11 10 9 9 12 9 8 7 6 6 6 6 7 7 6 6 6 6 7 7 7 8 8 8 9 8 8 8 9 9
6 5 5 4 5 4 4 3 4 4 5 5 4 6 7 6 8 10 11 10 9 9 9 12 10 8 7 6 5 5 6 6 6 6 6 5 6 6 6 7 7 7 8 8 7 7 7 8 8
6 5 4 3 4 5 4 2 2 3 5 4 3 5 7 7 7 10 10 9 9 9 9 9 10 10 9 6 5 5 5 5 6 5 5 5 6 6 6 6 6 7 7 7 7 7 7 8 8
6 5 5 4 4 4 4 2 1 1 4 4 3 3 6 9 9 10 9 9 9 8 7 7 7 7 7 8 7 5 5 5 5 5 4 5 6 6 6 5 6 6 7 7 7 7 8 7 7
7 7 5 4 3 4 4 3 3 2 4 4 2 3 7 12 12 11 10 9 8 7 6 6 7 6 5 6 7 6 6 5 5 5 4 5 4 5 6 6 7 6 6 6 6 6 7 6 7
6 6 3 0 1 1 2 1 2 4 5 6 6 6 10 12 12 11 11 10 10 9 7 6 6 6 5 4 5 3 4 4 3 2 4 3 2 2 3 8 6 5 5 6 6 5 6 5 4
5 4 1 1 1 2 2 2 2 4 4 4 6 9 12 12 12 10 10 9 9 9 7 6 5 5 5 4 3 2 2 3 3 3 3 2 2 2 2 3 5 5 5 4 6 6 3 2 2
5 3 3 2 1 3 3 2 3 3 1 1 4 9 12 12 11 10 9 8 8 8 8 6 6 5 4 3 3 3 2 2 2 3 2 2 1 1 1 1 2 2 2 2 2 2 2 2 2
7 4 3 3 3 4 4 4 3 2 1 2 6 9 11 11 10 8 7 6 7 7 8 7 6 5 4 3 3 3 2 2 2 2 2 2 2 1 2 1 1 1 2 2 2 1 2 2 2
3 4 4 4 4 4 4 4 4 2 3 5 7 8 9 9 9 9 8 7 7 7 6 6 6 5 5 4 3 3 3 2 2 2 2 2 2 1 1 2 2 1 1 1 1 2 2 1 1
4 6 6 5 5 4 5 6 5 4 5 6 7 7 8 8 8 8 7 7 7 7 6 6 6 5 5 5 4 3 3 3 2 2 2 2 2 2 2 2 2 2 1 2 1 2 2 2 2
8 9 8 6 4 4 7 6 4 5 6 6 6 7 7 7 7 6 6 6 6 6 7 6 5 6 5 4 3 2 2 2 2 2 3 3 2 3 3 2 2 2 2 2 2 2 2 2 2
10 9 7 5 4 4 7 4 3 4 6 6 7 7 7 7 7 6 6 6 6 6 7 7 6 6 5 5 4 3 3 2 2 2 2 2 3 3 3 2 1 3 2 2 2 2 2 2 2
7 8 7 6 4 4 6 4 2 4 6 6 6 6 7 7 6 6 5 5 5 6 6 6 7 6 5 5 4 3 4 3 2 2 2 2 3 3 3 3 2 3 2 2 2 2 2 2 2
6 7 8 5 2 6 7 6 4 4 6 7 7 7 7 6 6 6 6 5 5 5 6 6 6 6 5 4 4 4 4 3 3 3 3 3 3 3 3 2 3 3 2 2 3 3 4 3 2
9 10 9 6 4 6 6 7 5 5 6 6 6 7 7 7 6 6 6 5 5 5 5 6 6 6 6 4 3 3 3 3 3 2 3 3 3 4 4 3 3 3 2 3 3 3 3 3 3
10 10 8 6 5 7 7 9 8 6 5 4 5 6 7 7 7 7 7 6 5 5 5 4 5 5 5 5 4 3 3 3 4 4 4 4 4 4 4 4 4 3 4 3 3 4 4 3 3
10 7 7 8 9 7 7 8 6 6 6 5 4 5 6 7 7 7 6 6 5 5 5 5 5 5 5 5 5 5 4 4 4 3 3 4 4 4 4 4 4 3 3 3 4 4 3 3 3
6 3 7 9 10 9 9 9 5 5 5 4 4 4 5 6 6 6 5 5 5 4 4 4 5 4 4 4 5 5 5 4 3 3 4 4 4 4 4 4 4 4 3 3 3 3 3 3 3
5 5 7 9 10 12 9 10 5 3 3 3 3 3 4 5 5 5 4 4 4 4 4 5 5 5 4 4 4 4 4 4 4 4 4 4 4 4 4 4 4 4 3 3 4 3 4 2 2
9 9 8 9 9 8 4 7 3 2 1 2 1 3 4 4 4 4 3 3 4 4 4 4 5 4 4 4 4 4 5 5 5 5 4 4 3 3 4 4 4 3 3 3 3 3 3 3 3
9 11 9 8 8 5 6 7 1 3 2 1 1 2 3 3 3 3 2 2 3 3 3 3 3 4 4 4 4 4 4 4 3 4 4 4 3 2 3 4 4 4 4 4 3 4 4 3 4
8 9 9 10 11 10 7 4 4 3 2 2 2 3 3 3 3 2 2 2 1 2 2 2 2 2 3 4 4 4 4 3 3 3 4 3 3 2 4 4 4 4 4 4 4 3 3 4 5
7 6 6 9 10 11 9 7 4 3 2 2 2 2 2 2 2 2 2 2 1 1 1 1 1 2 3 3 3 3 3 4 3 3 3 3 3 3 4 4 4 4 4 4 4 4 3 4 4
6 7 7 8 9 10 10 3 3 1 1 1 2 2 2 3 2 2 2 2 2 1 1 0 1 2 2 3 3 3 3 3 4 4 4 4 4 4 5 5 5 4 4 4 4 4 4 5 4
7 7 8 8 9 10 10 3 4 2 0 1 1 2 2 2 2 2 2 2 1 1 0 0 1 1 2 2 2 3 3 3 4 4 4 4 4 5 5 5 5 5 5 4 5 5 5 5 5
Wind_Direction
196 200 223 236 234 195 89 84 70 89 87 74 77 54 49 36 25 65 100 131 130 129 127 135 128 128 124 119 114 114 113 111 109 107 105 100 95 90 82 80 86 96 105 111 114 116 117 116 115
202 209 233 241 257 140 99 90 82 68 84 109 115 97 86 76 61 93 123 132 137 130 132 129 126 127 124 120 114 112 113 111 107 103 101 99 96 90 84 83 89 95 99 104 115 119 120 120 117
212 235 257 250 280 56 91 89 78 87 115 134 114 79 62 76 95 112 123 139 137 132 132 124 132 126 122 120 114 112 112 110 108 105 100 96 93 88 86 87 90 94 97 98 108 117 121 123 121
230 224 233 244 110 64 63 80 93 130 131 129 127 110 92 65 91 114 132 143 141 141 139 126 135 128 124 122 119 116 112 113 113 110 106 102 99 95 90 88 89 92 96 98 100 109 115 117 118
240 248 220 185 121 89 71 73 151 157 137 136 146 113 103 87 99 122 140 146 146 140 137 130 133 131 127 124 121 119 115 113 113 110 107 104 100 97 94 91 93 94 96 100 102 104 108 111 110
231 233 223 176 128 108 92 118 158 150 129 135 149 128 101 109 129 138 145 150 145 141 138 129 136 136 131 126 123 117 113 113 113 113 109 106 104 99 96 93 94 96 98 100 104 108 111 111 110
258 241 228 181 144 122 85 112 161 149 141 141 147 128 118 131 135 143 146 146 144 144 140 142 147 148 146 135 123 117 113 115 115 114 112 112 114 111 104 97 95 93 98 104 106 109 111 111 109
274 250 210 194 174 118 106 127 124 159 119 112 165 148 134 142 144 146 145 148 147 147 144 146 150 151 156 147 134 126 118 118 121 120 128 139 142 137 126 122 105 101 104 106 105 107 108 113 113
251 242 209 193 188 120 119 149 118 127 135 135 129 68 107 136 148 151 151 153 151 153 154 157 154 154 156 147 140 157 152 146 164 155 158 187 172 150 146 106 109 114 115 115 113 114 120 131 136
237 234 208 67 328 102 136 189 146 177 170 157 144 118 128 147 157 162 164 163 163 163 169 165 161 159 160 150 148 170 169 157 188 157 168 177 150 147 132 118 123 126 131 135 133 143 162 188 152
233 245 205 181 288 294 228 211 209 222 197 178 170 153 156 164 168 173 173 172 168 164 167 166 165 169 167 160 159 165 181 160 172 166 174 173 171 168 160 146 153 160 169 163 153 176 173 146 111
225 233 266 266 284 260 252 239 223 235 287 81 164 160 165 174 178 180 179 174 166 168 170 175 171 171 179 166 166 182 179 165 169 165 197 171 170 177 145 161 151 158 152 149 154 157 135 141 144
220 217 226 258 249 256 249 238 237 235 240 142 149 162 171 178 180 179 179 171 169 174 177 178 179 172 173 176 194 182 184 185 170 172 169 197 175 169 156 151 155 162 156 162 156 148 139 160 154
223 235 236 242 235 224 230 229 222 214 159 152 155 165 174 179 180 174 174 173 176 177 179 179 185 177 179 183 193 193 189 188 192 171 160 194 181 158 185 172 175 167 167 130 152 137 155 157 128
228 231 220 216 220 204 218 218 215 181 176 168 166 165 172 178 178 178 179 178 181 177 177 181 186 180 188 191 199 195 194 188 189 164 159 180 194 169 198 196 194 174 168 160 168 159 162 166 160
219 228 221 177 204 195 234 237 167 164 180 179 176 170 172 173 179 178 176 181 181 178 173 178 184 178 185 192 198 199 201 185 188 173 165 178 192 195 205 203 186 174 187 181 176 189 172 161 172
215 229 230 183 178 209 236 249 137 165 191 189 184 179 176 174 180 172 174 176 176 180 180 178 184 184 186 188 189 190 182 193 196 185 183 178 198 200 207 202 161 200 190 191 205 159 192 177 181
227 233 228 225 172 227 241 250 194 191 207 203 194 188 185 182 181 171 171 168 169 173 179 184 185 184 187 189 189 188 184 189 194 194 193 193 197 202 218 191 181 209 186 188 194 190 207 203 196
271 257 247 238 217 245 244 253 246 215 218 217 204 200 195 187 178 171 170 166 164 165 176 184 188 182 188 192 198 191 189 195 194 198 196 204 206 197 216 214 179 212 185 197 197 201 189 191 191
243 248 245 230 200 247 245 254 249 225 227 228 219 209 201 192 178 173 175 175 174 172 176 179 184 183 192 193 208 206 205 204 195 208 194 208 204 204 207 215 208 203 193 194 194 202 209 192 196
237 248 253 250 216 226 247 241 221 193 199 208 216 215 205 196 187 180 179 180 177 177 180 179 181 183 193 194 200 200 200 202 190 197 193 202 204 203 217 206 217 206 209 186 196 207 215 205 200
237 236 248 249 246 234 234 262 206 190 191 203 211 212 205 193 189 186 182 180 180 180 177 177 181 186 188 197 204 204 207 207 202 203 191 192 197 204 204 203 203 214 214 181 202 198 214 217 204
254 251 243 247 250 258 233 257 220 188 213 213 205 205 197 187 184 185 182 174 174 175 173 171 176 178 184 202 204 212 217 214 203 201 186 196 186 197 198 200 197 202 208 188 203 192 217 214 223
229 219 223 234 241 245 243 251 245 206 243 236 190 188 182 179 177 172 161 164 167 169 169 168 173 177 181 194 205 212 222 222 209 201 191 193 184 189 193 198 194 200 204 194 203 200 195 214 223
221 233 229 222 222 239 216 243 263 34 4 286 205 167 166 169 165 165 165 172 169 168 170 175 173 180 185 190 204 211 216 215 211 212 198 200 188 182 186 196 193 196 201 201 206 202 206 206 210
224 244 258 268 268 258 200 237 144 87 77 70 116 140 148 157 154 159 157 166 163 161 168 178 183 186 191 196 205 216 217 220 214 208 206 198 204 187 173 189 190 193 195 197 200 208 204 205 213
233 239 269 273 272 272 249 214 175 150 145 134 136 143 154 158 152 151 146 149 151 157 170 192 193 199 203 209 210 211 213 224 219 206 206 196 191 183 172 182 187 190 194 200 200 209 211 209 212
271 270 249 256 265 263 252 233 228 176 184 162 168 175 159 154 157 153 151 149 141 138 146 171 192 214 212 212 222 219 213 215 212 214 200 194 189 184 174 180 191 195 197 199 206 205 209 214 213
219 231 253 264 270 273 270 259 65 92 153 186 179 170 163 173 172 159 155 150 134 128 144 176 210 224 220 216 214 229 222 213 212 211 209 202 200 196 192 188 191 199 202 201 205 215 211 215 217
257 255 250 257 259 260 274 273 97 75 18 207 183 152 148 161 169 168 161 162 164 180 212 8 272 245 234 214 210 220 224 220 215 211 210 206 204 205 197 195 196 202 206 206 207 216 215 218 219